Hoonah, AK

2:46 AM AKDT on May 28, 2017 (GMT -0800)
Hoonah

Weather History for PAOH - September, 2013

Change the Weather History Date:

Monday, September 2, 2013

  Actual Average Record
Temperature  
Mean Temperature 58 °F -  
Max Temperature 64 °F 56 °F 66 °F (2002)
Min Temperature 50 °F 45 °F 35 °F (2000)
Degree Days  
Heating Degree Days 7    
Growing Degree Days 8 (Base 50)    
Moisture  
Dew Point 54 °F    
Average Humidity 88    
Maximum Humidity 100    
Minimum Humidity 67    
Precipitation  
Precipitation 0.00 in - - ()
Sea Level Pressure  
Sea Level Pressure 29.97 in    
Wind  
Wind Speed 1 mph (SE)    
Max Wind Speed 8 mph    
Max Gust Speed -    
Visibility 10 miles    
Events      
Averages and records for this station are not official NWS values.
T = Trace of Precipitation, MM = Missing Value Source: NWS Daily Summary

Daily Weather History Graph

Daily Weather History Graph

Search for Another Location

Airport or City:

Trip Planner

Search our weather history database for the weather conditions in past years. The results will help you decide how hot, cold, wet, or windy it might be!

Date:

Astronomy

Sep. 02, 2013 Rise Set
Actual Time 6:04 AM AKDT 7:56 PM AKDT
Civil Twilight 5:22 AM AKDT 8:38 PM AKDT
Nautical Twilight 4:29 AM AKDT 9:30 PM AKDT
Astronomical Twilight 3:25 AM AKDT 10:33 PM AKDT
Moon 3:07 AM AKDT (9/2) 6:28 PM AKDT (9/2)
Length of Visible Light 15h 15m
Length of Day
13h 52m
Waning Crescent, 7% of the Moon is Illuminated
Sep 2
Waning Crescent
Sep 5
New
Sep 12
First Quarter
Sep 19
Full
Sep 26
Last Quarter

Hourly Weather History & Observations

Time (AKDT) Temp. Dew Point Humidity Pressure Visibility Wind Dir Wind Speed Gust Speed Precip Events Conditions
12:56 AM 55.9 °F 55.9 °F 100% 29.92 in 10.0 mi Calm Calm - N/A   Overcast
1:56 AM 55.9 °F 55.9 °F 100% 29.93 in 10.0 mi Calm Calm - N/A   Overcast
2:56 AM 55.9 °F 55.9 °F 100% 29.94 in 10.0 mi Calm Calm - N/A   Overcast
3:56 AM 55.4 °F 55.4 °F 100% 29.93 in 10.0 mi Calm Calm - N/A   Overcast
4:22 AM 53.6 °F 53.6 °F 100% 29.93 in 10.0 mi Calm Calm - N/A   Overcast
4:56 AM 54.0 °F 54.0 °F 100% 29.94 in 10.0 mi Calm Calm - N/A   Overcast
5:19 AM 53.6 °F 53.6 °F 100% 29.94 in 10.0 mi Calm Calm - N/A   Overcast
5:56 AM 54.0 °F 54.0 °F 100% 29.95 in 9.0 mi Calm Calm - N/A   Mostly Cloudy
6:13 AM 53.6 °F 53.6 °F 100% 29.95 in 10.0 mi Calm Calm - N/A   Mostly Cloudy
6:56 AM 55.4 °F 55.4 °F 100% 29.95 in 10.0 mi Calm Calm - N/A   Overcast
7:56 AM 55.9 °F 55.9 °F 100% 29.96 in 10.0 mi Calm Calm - N/A   Overcast
8:56 AM 59.9 °F 55.9 °F 87% 29.96 in 10.0 mi Calm Calm - N/A   Mostly Cloudy
9:56 AM 63.0 °F 55.9 °F 78% 29.96 in 10.0 mi West 4.6 mph - N/A   Clear
10:56 AM 61.9 °F 55.9 °F 81% 29.97 in 10.0 mi Calm Calm - N/A   Scattered Clouds
11:56 AM 63.9 °F 54.9 °F 72% 29.98 in 10.0 mi East 5.8 mph - N/A   Partly Cloudy
12:56 PM 63.9 °F 54.0 °F 70% 29.98 in 10.0 mi East 6.9 mph - N/A   Mostly Cloudy
1:56 PM 64.9 °F 54.0 °F 68% 29.99 in 10.0 mi East 8.1 mph - N/A   Scattered Clouds
2:56 PM 63.9 °F 54.0 °F 70% 29.99 in 10.0 mi ESE 5.8 mph - N/A   Mostly Cloudy
3:56 PM 63.9 °F 52.9 °F 67% 29.98 in 10.0 mi South 4.6 mph - N/A   Overcast
4:56 PM 63.9 °F 54.0 °F 70% 29.98 in 10.0 mi Calm Calm - N/A   Overcast
5:56 PM 64.9 °F 54.0 °F 68% 29.98 in 10.0 mi Variable 3.5 mph - N/A   Overcast
6:56 PM 62.6 °F 55.4 °F 77% 29.98 in 10.0 mi SSE 3.5 mph - N/A   Overcast
7:56 PM 61.0 °F 54.9 °F 80% 29.99 in 10.0 mi Calm Calm - 0.00 in   Overcast
8:56 PM 59.0 °F 54.0 °F 83% 30.00 in 10.0 mi Calm Calm - N/A   Overcast
9:56 PM 54.9 °F 54.0 °F 97% 30.01 in 10.0 mi Calm Calm - N/A   Partly Cloudy
10:56 PM 52.9 °F 52.0 °F 97% 30.01 in 10.0 mi East 4.6 mph - N/A   Clear
11:56 PM 50.9 °F 50.9 °F 100% 30.02 in 10.0 mi Calm Calm - N/A   Scattered Clouds